Location: ?
(35.4996°N, 139.3166°E)
Time: 04:47:38
(UTC+00:00)

Cosmos 1943 Rocket - Pass Details

Date: 18 April 2024
Orbit: 810 x 845 km, 71.0° (Epoch: 23 May)

Event Time Altitude Azimuth Distance (km) Brightness Sun altitude
Rises 18:38:01 0° 324° (NW) 3,405 5.3 -17.4°
Reaches altitude 10° 18:40:49 10° 312° (NW) 2,468 4.4 -16.9°
Maximum altitude 18:45:24 26° 258° (WSW) 1,613 3.1 -16.0°
Enters shadow 18:46:19 25° 243° (WSW) 1,655 3.1 -15.9°
